User: anonymous   Login
Location: Stoke Bliss
(52.2667°N, 2.5167°W)
Time: 16:40:57
(UTC+00:00)
Language:

FALCON 9 DEB - Orbit

View from above orbital plane
View from above orbital plane
View from above satellite
View from above satellite

Ground track
Ground track

The orbit data is extracted from the following two-line orbital elements,

1 46085U 20055BL  21135.88773077  .00012669  00000-0  13795-3 0  9996
2 46085  53.0120 357.8458 0011501 134.2797 225.9161 15.63798854 48562
Epoch (UTC): 15 May 2021 21:18:19
Eccentricity: 0.0011501
inclination: 53.0120°
perigee height: 369 km
apogee height: 384 km
right ascension of ascending node: 357.8458°
argument of perigee: 134.2797°
revolutions per day: 15.63798854
mean anomaly at epoch: 225.9161°
orbit number at epoch: 4856

The dashed part of the orbit path shows where the satellite is in the earth's shadow,  

DLR